Simultaneous Nadir Overpasses (SNOs) Predictions

Prediction of SNOs between GOES-17 and AQUA Satellite Orbit:

Table of predicted SNOs for the next 14.0 days since TLE Epoch: 3/12/2022
Index Date Time (GOES-17) GOES-17 Lat,Lon AQUA Lat,Lon Distance(km) Time Diff (sec)
1 03/12/2022 22:35:47 0.04,-137.20 0.60,-134.45 312.56 80
2 03/13/2022 10:57:01 -0.04,-137.21 0.49,-139.60 271.92 80
3 03/15/2022 10:42:04 -0.03,-137.20 -0.19,-136.62 67.40 80
4 03/17/2022 10:29:46 -0.02,-137.19 -0.82,-133.63 406.17 80
5 03/17/2022 22:53:48 0.02,-137.18 -0.32,-138.80 184.42 80
6 03/19/2022 22:38:50 0.02,-137.16 0.33,-135.81 153.78 80
7 03/20/2022 11:02:43 -0.02,-137.16 0.80,-140.95 431.01 80
8 03/21/2022 22:29:11 0.03,-137.14 0.94,-132.82 491.15 80
9 03/22/2022 10:50:25 -0.02,-137.14 0.13,-137.97 93.89 80
10 03/24/2022 10:35:26 -0.02,-137.10 -0.50,-134.97 242.47 80
11 03/24/2022 22:56:47 0.02,-137.08 -0.62,-140.15 348.91 80
